Hourly Data Report for October 02, 2013

All times are specified in Local Standard Time (LST). Add 1 hour to adjust for Daylight Saving Time where and when it is observed.

EMERSON AUTO
MANITOBA

49°00'00.000" N
97°14'15.000" W
242.00 m
5020881
71560
WEX

Download Data

Hourly Data (October 2013)
Hourly Data Report for October 2, 2013
Temp Definition
°C
Dew Point Temp Definition
°C
Rel Hum Definition
%
Wind Dir Definition
10's deg

Wind Spd Definition
km/h
Visibility Definition
km
Stn Press Definition
kPa
Hmdx Definition


Wind Chill Definition


Weather Definition


TIME
00:00 5.9 2.7 80 21 11   98.14     LegendNANA
01:00 6.6 2.9 77 19 13   98.18     LegendNANA
02:00 4.7 2.3 84 22 13   98.20     LegendNANA
03:00 4.7 2.2 84 22 9   98.23     LegendNANA
04:00 4.2 1.9 85 23 13   98.26     LegendNANA
05:00 3.9 1.8 86 24 9   98.30     LegendNANA
06:00 5.7 3.2 84 21 11   98.32     LegendNANA
07:00 7.4 3.8 78 20 4   98.32     LegendNANA
08:00 8.7 4.8 76 21 9   98.42     LegendNANA
09:00 10.4 4.6 67 21 19   98.48     LegendNANA
10:00 12.0 5.8 66 19 6   98.49     LegendNANA
11:00 12.6 5.7 63 23 7   98.52     LegendNANA
12:00 13.1 7.7 70 13 6   98.59     LegendNANA
13:00 13.6 7.2 65   0   98.55     LegendNANA
14:00 13.3 8.5 73 15 7   98.48     LegendNANA
15:00 13.4 9.1 75 17 4   98.48     LegendNANA
16:00 14.8 8.7 67 16 4   98.46     LegendNANA
17:00 14.0 9.0 72 16 9   98.47     LegendNANA
18:00 11.7 8.7 82 18 13   98.52     LegendNANA
19:00 10.7 8.2 85 17 11   98.54     LegendNANA
20:00 9.0 7.0 87 18 11   98.56     LegendNANA
21:00 8.0 6.4 90 18 9   98.58     LegendNANA
22:00 6.8 5.1 89 19 4   98.59     LegendNANA
23:00 5.0 3.8 92 19 7   98.59     LegendNANA

Notes on Data Quality.

Legend

  • E = Estimated
  • M = Missing
  • NA = Not Available
  • ‡ = Partner data that is not subject to review by the National Climate Archives
Date modified: